Etusivu
METAR-TAF:

METAR-TAF

Lentoasemat :

Eureka, Nevada, Yhdysvallat

Leveyspiiri: 39-36-05N, Pituuspiiri: 116-00-20W, korkeus merenpinnasta: 1812 m

Tämänhetkinen sää

Tämä raportti tehtiin 33 minuuttia sitten, kello 08.53 UTC
tyyntä
Lämpötila -4°C
Kosteus 86%
Ilmanpaine 1020 hPa

METAR: KP68 250853Z AUTO 00000KT M04/M06 A3013 RMK AO1 SLP186 T10391056 53005

Aika: 01:26 (09:26 UTC)


TAF: puuttuu

Säähavainnot ja -ennusteet yli 4000 lentoasemalta (METAR- ja TAF-raportit).

Käytössä olevat sääasemat on merkitty karttaan keltaisilla ja punaisilla pisteillä.

Aseta hiiri pisteen päälle nähdäksesi sääaseman nimen.

Klikkaa sitten nähdäksesi säähavainnot ja -ennusteet.

Kartan vaihtaminen: klikkaa mustalla rastilla varustettuja vihreitä pisteitä, niin voit zoomata sisään; viivalla varustettua vihreää pistettä, niin voit zoomata ulos tai vihreitä nuolia, niin pääset viereisille kartoille.


METAR-TAF: